User: anonymous   Login
Location: Bishop's University Astronomical Observatory
(45.3661°N, 71.8475°W)
Time: 01:04:16
(UTC-04:00)
Language:

Meteor 2-5 Rocket - Orbit

View from above orbital plane
View from above orbital plane
View from above satellite
View from above satellite

Ground track
Ground track

The orbit data is extracted from the following two-line orbital elements,

1 11608U 79095B   16236.15957555 -.00000073  00000-0 -50761-4 0  9991
2 11608  81.2158 140.2222 0052943 280.1648  79.3552 14.06102983888197
Epoch (UTC): 23 August 2016 03:49:47
Eccentricity: 0.0052943
inclination: 81.2158°
perigee height: 834 km
apogee height: 911 km
right ascension of ascending node: 140.2222°
argument of perigee: 280.1648°
revolutions per day: 14.06102983
mean anomaly at epoch: 79.3552°
orbit number at epoch: 88819

The dashed part of the orbit path shows where the satellite is in the earth's shadow,  

DLR